Regional Weather Roundup
Issued by NWS

Home | Current Version | Previous Version | Text Only | Print | Product List | Glossary Off
Versions: 1 2 3 4 5 6 7 8 9 10 11 12 13 14 15 16 17 18 19 20 21 22 23 24 25 26 27 28 29 30 31 32 33 34 35 36 37 38 39 40 41 42 43 44 45 46 47 48 49 50

000
ASUS43 KMPX 020510
RWRMN
WEATHER ROUNDUP FOR MINNESOTA
NATIONAL WEATHER SERVICE TWIN CITIES/CHANHASSEN MN
1200 AM CDT TUE SEP 02 2014


NOTE: "FAIR" INDICATES FEW OR NO CLOUDS BELOW 12,000 FEET WITH NO
SIGNIFICANT WEATHER AND/OR OBSTRUCTIONS TO VISIBILITY. N/A MEANS
CURRENT SKY AND/OR WEATHER CONDITIONS ARE NOT AVAILABLE.

MNZ060>063-068>070-020600-
   Twin Cities Metro

CITY           SKY/WX    TMP DP  RH WIND       PRES   REMARKS
TWIN CITIES    PTCLDY    66  59  78 S5        29.80F
ST PAUL        CLEAR     62  59  90 CALM      29.80F
CRYSTAL        CLEAR     62  57  83 CALM      29.78F
BLAINE         MOCLDY    64  61  88 S3        29.80S
LAKEVILLE      CLEAR     61  57  88 CALM      29.82R
EDEN PRAIRIE   CLEAR     64  59  83 SW9       29.80S
SOUTH ST PAUL  CLEAR     64  57  80 CALM      29.80S
LAKE ELMO      MOCLDY    59  57  94 CALM      29.82R
$$
MNZ001>005-007-008-013>017-022>024-027-028-020600-
   Northwest Minnesota

CITY           SKY/WX    TMP DP  RH WIND       PRES   REMARKS
BEMIDJI        CLEAR     55  49  82 W5        29.78F
HALLOCK        CLEAR     54  50  87 SW5       29.74S
ROSEAU           N/A     55  52  88 SW7       29.73S
WARROAD        CLEAR     55  52  88 SW8       29.73S
THIEF RVR FALL CLEAR     55  54  94 SW9       29.78S
CROOKSTON      CLEAR     54  52  94 SW6       29.78F
FOSSTON        CLEAR     50  48  93 S5        29.80S
DETROIT LAKES  CLEAR     55  54  94 CALM      29.82F
MOORHEAD       PTCLDY    57  57 100 CALM      29.81S
PARK RAPIDS    CLEAR     51  51 100 W3        29.80S
MAHNOMEN       FAIR      52  51  98 S7        29.80S
$$
MNZ006-009>011-018-025>026-020600-
   North Central Minnesota

CITY           SKY/WX    TMP DP  RH WIND       PRES   REMARKS
BAUDETTE       CLEAR     50  48  93 SW3       29.73S
FLAG ISLAND    CLEAR     57  54  88 SW16      29.68F
INTL FALLS     CLEAR     51  49  92 W6        29.73S
WASKISH        CLEAR     55  54  94 CALM      29.76S
BIG FORK       CLEAR     50  48  93 CALM      29.78R FOG
LONGVILLE      CLEAR     54  54 100 CALM      29.79R
GRAND RAPIDS   CLEAR     57  52  82 W5        29.78S
CRANE LAKE     PTCLDY    48  46  93 CALM      29.75R
ORR            PTCLDY    54  48  82 CALM      29.73R
COOK           PTCLDY    52  52 100 CALM      29.76R
WALKER         FAIR      53  51  91 W3        29.79R
$$
MNZ012-019>021-037-020600-
   Northeast Minnesota

CITY           SKY/WX    TMP DP  RH WIND       PRES   REMARKS
DULUTH         CLOUDY    58  51  78 W7        29.76F
ELY            MOCLDY    50  48  93 CALM      29.74S
HIBBING        PTCLDY    50  47  89 CALM      29.77R
EVELETH        MOCLDY    57  54  88 W3        29.77R
DULUTH HARBOR  CLOUDY    61  55  82 SW5       29.76S
TWO HARBORS    PTCLDY    57  50  77 W6        29.74R
SILVER BAY     CLEAR     54  54 100 W3        29.73R
GRAND MARAIS     N/A     58  53  84 CALM      29.69S
G MARAIS ARPRT CLEAR     54  48  82 W6        29.73S
$$
MNZ029>031-032-039>041-046>048-054>057-064-020600-
   West Central Minnesota

CITY           SKY/WX    TMP DP  RH WIND       PRES   REMARKS
FERGUS FALLS   MOCLDY    55  54  94 CALM      29.82S
WHEATON        CLOUDY    57  54  88 SW5       29.84S
MORRIS         CLOUDY    61  55  82 W6        29.82R
ALEXANDRIA     MOCLDY    59  53  80 CALM      29.82F
ELBOW LAKE     FAIR      58  55  89 CALM      29.82S
WADENA         CLEAR     52  52 100 CALM      29.80S
GLENWOOD       MOCLDY    59  55  88 W6        29.82F
APPLETON       CLOUDY    63  55  77 W5        29.83R
BENSON         CLOUDY    61  55  82 NW8       29.82S
ORTONVILLE     CLOUDY    63  54  72 W10       29.83S
MADISON        CLOUDY    64  55  72 W8        29.84R
WILLMAR        FAIR      61  55  82 SW6       29.84S
$$
MNZ033>034-036-042>043-049>051-058-059-020600-
   Central Minnesota

CITY           SKY/WX    TMP DP  RH WIND       PRES   REMARKS
ST CLOUD       MOCLDY    62  55  77 CALM      29.81S
SAUK CENTRE    FAIR      55  54  94 CALM      29.82F
PAYNESVILLE    HVY RAIN  60  55  83 CALM      29.82F
AITKIN         PTCLDY    55  52  88 CALM      29.77F
PINE RIVER     CLEAR     54  54 100 CALM      29.83F
BRAINERD       PTCLDY    54  53  97 W5        29.79F
STAPLES        CLEAR     54  52  94 CALM      29.80S
LONG PRAIRIE   FAIR      54  52  94 S3        29.82F
LITTLE FALLS   PTCLDY    54  52  94 CALM      29.80F
LITCHFIELD     MOCLDY    64  61  88 NW5       29.83R
BUFFALO        MOCLDY    64  58  80 NW8       29.83R
MAPLE LAKE     RAIN      65  60  84 NW6       29.83R
$$
MNZ037-044-045-052-053-020600-
   East Central Minnesota

CITY           SKY/WX    TMP DP  RH WIND       PRES   REMARKS
PRINCETON      PTCLDY    61  55  82 CALM      29.81F
MORA           MOCLDY    59  52  77 SW3       29.80F
CAMBRIDGE      PTCLDY    63  52  67 CALM      29.78F
RUSH CITY      LGT RAIN  60  55  85 CALM      29.79F
MOOSE LAKE     CLOUDY    59  52  77 CALM      29.76R
HINCKLEY       MOCLDY    57  55  94 CALM      29.77F
CLOQUET        CLOUDY    57  52  82 W6        29.78R
MCGREGOR       PTCLDY    57  54  88 NW3       29.79S
$$
MNZ071>073-080-081-089-090-097-098-020600-
   Southwest Minnesota

CITY           SKY/WX    TMP DP  RH WIND       PRES   REMARKS
MONTEVIDEO     CLOUDY    63  55  77 NW3       29.85R
GRANITE FALLS  CLOUDY    58  56  95 SW5       29.85R
CANBY          CLOUDY    64  52  67 SW10      29.87R
MARSHALL       CLOUDY    63  52  67 W7        29.85R
REDWOOD FALLS  MOCLDY    64  57  78 W6        29.83S
OLIVIA         MOCLDY    61  55  82 W5        29.83R
PIPESTONE      CLOUDY    61  54  77 W6        29.90R
WINDOM         PTCLDY    59  55  88 W5        29.86F
WORTHINGTON    MOCLDY    61  55  82 W7        29.89S
JACKSON        CLEAR     59  55  88 CALM      29.87F
TRACY          CLOUDY    64  56  75 NW7       29.87R
SLAYTON        CLOUDY    64  54  70 CALM      29.89R
$$
MNZ065>067-074>077-082>085-091>093-020600-
   South Central Minnesota

CITY           SKY/WX    TMP DP  RH WIND       PRES   REMARKS
MANKATO        CLEAR     63  55  77 SW7       29.84R
NEW ULM        CLEAR     59  59 100 W5        29.85R
ST JAMES       CLEAR     61  57  88 CALM      29.86S
FAIRMONT       CLEAR     61  54  77 CALM      29.86S
GLENCOE        PTCLDY    65  57  73 SW6       29.82R
FARIBAULT      CLEAR     64  57  77 CALM      29.84R
OWATONNA       CLEAR     61  55  82 SW5       29.85R
WASECA         CLEAR     55  52  88 CALM      29.86S
ALBERT LEA     CLEAR     61  59  94 CALM      29.87R
$$
MNZ078>079-086>088-094>096-020600-
   Southeast Minnesota

CITY           SKY/WX    TMP DP  RH WIND       PRES   REMARKS
ROCHESTER      CLEAR     59  56  89 SW6       29.85F
RED WING       CLEAR     59  57  94 CALM      29.81S
STANTON        CLEAR     62  57  86 CALM      29.81S
DODGE CENTER   CLEAR     59  57  94 W5        29.85S
WINONA         CLEAR     61  59  94 CALM      29.84R
AUSTIN         CLEAR     57  55  94 SW5       29.86R
PRESTON        CLEAR     60  59  97 CALM      29.87R
$$
ABBREVIATIONS USED IN REMARKS
   TC - TEMPERATURES IN CELSIUS
  WCI - WIND CHILL INDEX
   HX - HEAT INDEX
  VSB - VISIBILITY
$$



USA.gov is the U.S. government's official web portal to all federal, state and local government web resources and services.